FW5821 Weather Reports


Display with metric or nautical units.
time (UTC)temp
F
wind
direction
speed
MPH
gust
MPH
rain 1hr
in
rain 24hr
in
rain mn
in
humidity
%
barometer
mb
20260507050203 47 355 0.0 0.0 0.00 0.00 0.00 81 1013.8
20260507045204 47 358 0.0 0.0 0.00 0.00 0.00 81 1013.6
20260507044202 47 0 0.0 0.0 0.00 0.00 0.00 80 1013.6
20260507043204 47 0 0.0 0.0 0.00 0.00 0.00 80 1013.5
20260507042203 47 0 0.0 0.0 0.00 0.00 0.00 80 1013.5
20260507040201 47 0 0.0 0.0 0.00 0.00 0.00 80 1013.3
20260507035201 47 6 0.0 0.0 0.00 0.00 0.00 79 1013.3
20260507034201 47 0 0.0 0.0 0.00 0.00 0.00 79 1013.3
20260507033200 47 4 0.0 0.0 0.00 0.00 0.00 79 1013.3
20260507030200 47 0 0.0 0.0 0.00 0.00 0.00 79 1013.1
20260507025159 47 31 0.0 0.0 0.00 0.00 0.00 78 1013.1
20260507024159 47 1 0.0 0.0 0.00 0.00 0.00 78 1013.0
20260507023200 48 31 0.0 0.0 0.00 0.00 0.00 78 1012.9
20260507021158 48 25 0.0 0.0 0.00 0.00 0.00 78 1012.8
20260507020157 48 3 0.0 0.0 0.00 0.00 0.00 78 1012.7
20260507015200 48 6 0.0 0.0 0.00 0.00 0.00 78 1012.6
20260507014158 49 0 0.0 0.0 0.00 0.00 0.00 77 1012.6
20260507013159 49 7 0.0 0.0 0.00 0.00 0.00 77 1012.7
20260507012156 49 6 0.0 0.0 0.00 0.00 0.00 77 1012.6
20260507011200 49 358 0.0 0.0 0.00 0.00 0.00 77 1012.5
20260507010158 49 3 0.0 0.0 0.00 0.00 0.00 77 1012.4
20260507005159 49 357 0.0 0.0 0.00 0.00 0.00 76 1012.4
20260507004157 50 6 0.0 0.0 0.00 0.00 0.00 76 1012.3
20260507003158 50 11 0.0 0.0 0.00 0.00 0.00 76 1012.3
20260507002158 50 10 0.0 0.0 0.00 0.00 0.00 76 1012.3
20260507001159 50 17 0.0 0.0 0.00 0.00 0.00 76 1012.2
20260507000157 50 0 0.0 0.0 0.00 0.00 0.00 76 1012.1
20260506235158 51 0 0.0 0.0 0.00 0.00 0.00 76 1012.0
20260506234156 51 25 0.0 0.0 0.00 0.00 0.00 76 1012.1
20260506233156 51 41 0.0 0.0 0.00 0.00 0.00 76 1012.0
20260506232156 51 42 0.0 0.0 0.00 0.00 0.00 75 1011.9
20260506230155 51 4 0.0 0.0 0.00 0.00 0.00 75 1011.9
20260506225155 51 1 0.0 0.0 0.00 0.00 0.00 75 1012.0
20260506224155 51 1 0.0 0.0 0.00 0.00 0.00 75 1011.9
20260506222155 52 0 0.0 0.0 0.00 0.00 0.00 75 1011.8
20260506221156 51 10 0.0 0.0 0.00 0.00 0.00 75 1011.7
20260506220154 51 0 0.0 0.0 0.00 0.00 0.00 76 1011.8
20260506215153 51 6 0.0 0.0 0.00 0.00 0.00 76 1011.7
20260506214155 51 4 0.0 0.0 0.00 0.00 0.00 76 1011.7
20260506213153 52 4 0.0 0.0 0.00 0.00 0.00 76 1011.6
20260506212156 52 4 0.0 0.0 0.00 0.00 0.00 76 1011.5
20260506210156 52 4 0.0 0.0 0.00 0.00 0.00 76 1011.4
20260506205154 52 4 0.0 0.0 0.00 0.00 0.00 75 1011.3
20260506204154 52 4 0.0 0.0 0.00 0.00 0.00 75 1011.3
20260506203152 52 4 0.0 0.0 0.00 0.00 0.00 75 1011.2
20260506201151 52 4 0.0 0.0 0.00 0.00 0.00 74 1011.1
20260506200150 52 3 0.0 0.0 0.00 0.00 0.00 74 1011.1
20260506195152 52 7 0.0 0.0 0.00 0.00 0.00 74 1011.1
20260506194150 52 28 0.0 0.0 0.00 0.00 0.00 74 1011.0
20260506193150 52 28 0.0 0.0 0.00 0.00 0.00 73 1010.9
20260506192150 53 28 0.0 0.0 0.00 0.00 0.00 73 1010.7
20260506190149 53 28 0.0 0.0 0.00 0.00 0.00 72 1010.4
20260506185151 53 31 0.0 0.0 0.00 0.00 0.00 72 1010.3
20260506183150 53 38 0.0 0.0 0.00 0.00 0.00 71 1010.3
20260506182148 53 51 0.0 0.0 0.00 0.00 0.00 72 1010.1
20260506181148 53 49 0.0 0.0 0.00 0.00 0.00 71 1010.0
20260506180148 53 42 0.0 0.0 0.00 0.00 0.00 70 1009.9
20260506175151 53 39 0.0 0.0 0.00 0.00 0.00 70 1009.8
20260506174151 53 42 0.0 0.0 0.00 0.00 0.00 69 1009.7
20260506173150 53 44 0.0 0.0 0.00 0.00 0.00 69 1009.7
20260506172148 54 27 0.0 0.0 0.00 0.00 0.00 68 1009.4
20260506165148 54 34 0.0 0.0 0.00 0.00 0.00 69 1009.3
20260506164147 53 55 0.0 0.0 0.00 0.00 0.00 70 1009.4
20260506163147 53 71 0.0 0.0 0.00 0.00 0.00 71 1009.4
20260506160146 54 79 0.0 0.0 0.00 0.00 0.00 70 1009.3
20260506155148 53 51 0.0 0.0 0.00 0.00 0.00 71 1009.3
20260506154147 53 48 0.0 0.0 0.00 0.00 0.00 74 1009.2
20260506153149 53 69 0.0 0.0 0.00 0.00 0.00 74 1009.3
20260506152145 53 47 0.0 0.0 0.00 0.00 0.00 74 1009.3
20260506151146 53 54 0.0 0.0 0.00 0.00 0.00 75 1009.2
20260506150143 53 32 0.0 0.0 0.00 0.00 0.00 75 1009.3
20260506145145 53 42 0.0 0.0 0.00 0.00 0.00 75 1009.1
20260506144144 53 55 0.0 0.0 0.00 0.00 0.00 75 1009.1
20260506143146 53 55 0.0 0.0 0.00 0.00 0.00 74 1009.1
20260506142146 53 55 0.0 0.0 0.00 0.00 0.00 74 1009.1
20260506141144 53 54 0.0 0.0 0.00 0.00 0.00 73 1009.0
20260506140142 54 61 0.0 0.0 0.00 0.00 0.00 72 1009.0
20260506135143 54 45 0.0 0.0 0.00 0.00 0.00 70 1008.9
20260506134141 54 48 0.0 0.0 0.00 0.00 0.00 69 1008.8
20260506133141 54 31 0.0 0.0 0.00 0.00 0.00 69 1008.7
20260506131142 54 37 0.0 0.0 0.00 0.00 0.00 68 1008.7
20260506125141 54 18 0.0 0.0 0.00 0.00 0.00 68 1008.6
20260506123142 54 13 0.0 0.0 0.00 0.00 0.00 66 1008.5
20260506122141 54 48 0.0 0.0 0.00 0.00 0.00 64 1008.5
20260506121140 55 52 0.0 0.0 0.00 0.00 0.00 64 1008.4
20260506120139 55 54 0.0 0.0 0.00 0.00 0.00 67 1008.3
20260506114139 54 28 0.0 0.0 0.00 0.00 0.00 61 1008.4
20260506113139 54 25 0.0 0.0 0.00 0.00 0.00 63 1008.3
20260506112140 54 10 0.0 0.0 0.00 0.00 0.00 63 1008.3
20260506111138 54 27 0.0 0.0 0.00 0.00 0.00 63 1008.4
20260506105139 54 37 0.0 0.0 0.00 0.00 0.00 62 1008.1
20260506104140 54 10 0.0 0.0 0.00 0.00 0.00 62 1008.2
20260506103139 54 10 0.0 0.0 0.00 0.00 0.00 65 1008.2
20260506102138 54 45 0.0 0.0 0.00 0.00 0.00 64 1008.1
20260506101137 55 45 0.0 0.0 0.00 0.00 0.00 64 1008.1
20260506100153 54 16 0.0 0.0 0.00 0.00 0.00 62 1007.9
20260506095138 54 39 0.0 0.0 0.00 0.00 0.00 63 1008.0
20260506094137 54 8 0.0 0.0 0.00 0.00 0.00 66 1007.9
20260506093136 54 23 0.0 0.0 0.00 0.00 0.00 67 1008.0
20260506091136 53 41 0.0 0.0 0.00 0.00 0.00 71 1007.8
20260506090139 53 34 0.0 0.0 0.00 0.00 0.00 70 1007.7
20260506085136 53 66 0.0 0.0 0.00 0.00 0.00 71 1007.7
20260506083135 53 42 0.0 0.0 0.00 0.00 0.00 72 1007.6
20260506082135 53 27 0.0 0.0 0.00 0.00 0.00 74 1007.4
20260506081136 53 65 0.0 0.0 0.00 0.00 0.00 74 1007.4
20260506080145 53 7 0.0 0.0 0.00 0.00 0.00 75 1007.3
20260506072141 52 32 0.0 0.0 0.00 0.00 0.00 78 1007.2
20260506071135 52 23 0.0 0.0 0.00 0.00 0.00 79 1007.1
20260506070134 51 23 0.0 0.0 0.00 0.00 0.00 80 1007.1
20260506061136 50 337 0.0 0.0 0.00 0.00 0.00 82 1006.9
20260506060133 50 18 0.0 0.0 0.00 0.00 0.00 82 1006.9
20260506051131 49 0 0.0 0.0 0.00 0.00 0.00 84 1007.0